Regional Weather Roundup
Issued by NWS

Home | Current Version | Previous Version | Text Only | Print | Product List | Glossary On
Versions: 1 2 3 4 5 6 7 8 9 10 11 12 13 14 15 16 17 18 19 20 21 22 23 24 25 26 27
000
ASUS46 KPQR 231110
RWROR

OREGON REGIONAL WEATHER ROUNDUP
NATIONAL WEATHER SERVICE PORTLAND OR
300 AM PST THU NOV 23 2017

NOTE: "FAIR" INDICATES FEW OR NO CLOUDS BELOW 12,000 FEET WITH
NO SIGNIFICANT WEATHER AND/OR OBSTRUCTIONS TO VISIBILITY.

ORZ001>013-231200-
NORTHWEST OREGON


CITY           SKY/WX    TMP DP  RH WIND       PRES   REMARKS
ASTORIA        CLOUDY    56  55  97 SW12G20   29.91F
NEWPORT        RAIN      55  55 100 S14G22    30.00S VSB 1/2
PORTLAND       LGT RAIN  60  59  96 S8        29.94S
VANCOUVER WA   CLOUDY    60  60 100 E5        29.93S
SCAPPOOSE      CLOUDY    56  56 100 CALM      29.92S
HILLSBORO      CLOUDY    57  56  96 SE6       29.93S
AURORA         LGT RAIN  60  60 100 SW5       29.96S FOG
MCMINNVILLE    LGT RAIN  60  59  96 S8        29.95F
SALEM          LGT RAIN  61  58  90 SW7       29.94F FOG
CORVALLIS      LGT RAIN  60  59  96 S9        29.97S
EUGENE         HVY RAIN  59  59 100 S9        29.98S FOG
$$

ORZ021-028-231200-
SOUTHWEST OREGON


CITY           SKY/WX    TMP DP  RH WIND       PRES   REMARKS
NORTH BEND     LGT RAIN  61  60  97 SW18G26   30.02S
BROOKINGS      LGT RAIN  58  57  97 SE6       30.11R FOG
ROSEBURG       CLOUDY    59  58  96 CALM      30.02R FOG
SEXTON SUMMIT  FOG       51  50  96 S16G31    30.09F VSB 1/4
GRANTS PASS    CLOUDY    55  55 100 CALM      30.11S
MEDFORD        CLOUDY    55  55 100 CALM      30.07F
$$

ORZ014>016-041-231200-
COLUMBIA GORGE


CITY           SKY/WX    TMP DP  RH WIND       PRES   REMARKS
TROUTDALE      LGT RAIN  61  58  90 CALM      29.94F FOG
HOOD RIVER     LGT RAIN  50  48  93 SW5       29.93F
THE DALLES     LGT RAIN  50  48  93 CALM      29.93S FOG
$$

ORZ029>031-041-044-049-050-061>064-502-503-505>511-231200-
EASTERN OREGON


CITY           SKY/WX    TMP DP  RH WIND       PRES   REMARKS
MADRAS         CLOUDY    59  59 100 CALM      29.99F
REDMOND        MOCLDY    59  44  57 SE6       30.01F
BEND           MOCLDY    57  43  58 SW12      30.03F
PRINEVILLE     CLOUDY    61  43  51 SW13G21   30.03F
KLAMATH FALLS  CLOUDY    46  43  89 CALM      30.15F
LAKEVIEW       CLOUDY    50  41  71 S12       30.21F
HERMISTON      LGT RAIN  45  45 100 NE3       29.90S
PENDLETON      CLOUDY    61  47  59 SW6       29.89F
JOHN DAY       LGT RAIN  62  39  42 S16       30.07S
MEACHAM        CLOUDY    50  46  86 CALM      30.01S
LA GRANDE      CLOUDY    59  47  64 S17G26    30.02F
BAKER CITY     CLOUDY    53  45  74 SW7       30.07S
BURNS          CLOUDY    42  41  96 E5        30.13F
ROME             N/A     54  43  66 S7        30.15S
ONTARIO        NOT AVBL
$$




USA.gov is the U.S. government's official web portal to all federal, state and local government web resources and services.